Regional Weather Roundup
Issued by NWS

Home | Current Version | Previous Version | Text Only | Print | Product List | Glossary On
Versions: 1 2 3 4 5 6 7 8 9 10 11 12 13 14 15 16 17 18 19 20 21 22 23 24 25 26 27 28 29 30 31 32 33 34 35 36 37 38 39 40 41 42 43 44 45 46 47 48 49 50
000
ASUS45 KTFX 281504
RWRMT
MONTANA HOURLY WEATHER ROUNDUP
NATIONAL WEATHER SERVICE GREAT FALLS MT
804 AM MST SAT FEB 28 2015

NOTE: "FAIR" INDICATES FEW OR NO CLOUDS BELOW 12000 FEET WITH NO
SIGNIFICANT WEATHER AND/OR OBSTRUCTIONS TO VISIBILITY.

* THESE STATIONS ARE NOT UNDER NWS QUALITY CONTROL. THEY DO NOT
   REPORT WEATHER SUCH AS PRECIPITATION OR FOG.

MTZ001>007-043-281600-
WEST OF THE DIVIDE
CITY           SKY/WX    TMP DP  RH WIND       PRES   REMARKS
KALISPELL      SUNNY     14   7  73 N6        30.13R WCI   5
MISSOULA       PTCLDY    19   3  49 E10       30.10R WCI   8
BUTTE          LGT SNOW  10   3  73 NW3       29.96R VSB 2 1/2
MULLAN PASS    SUNNY      9   1  70 E8        29.86R WCI  -3
* ANACONDA     PTCLDY    10   5  80 N8         N/A   WCI  -2
* ESSEX        N/A        6   2  83 SE2        N/A
* LINCOLN      N/A       10   2  70 NE7        N/A   WCI  -1
* LOOKOUT PASS N/A       14   4  64 NW2        N/A
* POLSON       N/A       14   5  67 N1         N/A
* RONAN APT    SUNNY     21   9  60 N/A        N/A
* SEELEY LAKE  N/A       -3  -8  79 N/A        N/A
* THOMP F APT  SUNNY     12   3  67 NW12G22    N/A   WCI  -2
$$

MTZ008-052>055-281600-
SOUTHWEST MONTANA
CITY           SKY/WX    TMP DP  RH WIND       PRES   REMARKS
BOZEMAN        LGT SNOW  14   7  73 W3        30.04R VSB 2
DILLON         LGT SNOW  12   7  80 NE18      29.94R WCI  -5
* W YELLOWSTON PTSUNNY   -4 -10  75 N/A        N/A
* THREE FORKS  PTCLDY    16   7  67 N/A        N/A
* BOULDER HILL N/A        7   2  80 N11G17     N/A   WCI  -8
* MONIDA PASS  N/A        9   5  84 NE7        N/A   WCI  -2
* RAYNOLDS PAS N/A        4   2  91 N9G14      N/A   WCI -10
* WHITEHALL    N/A       14   8  77 E4G9       N/A
* WISE RIVER   N/A       12   2  64 E10G19     N/A   WCI  -1
$$

MTZ009>010-012-014-046-048-049-054-281600-
EAST SLOPES AND CENTRAL MONTANA
CITY           SKY/WX    TMP DP  RH WIND       PRES   REMARKS
CUT BANK       SUNNY      1   0  95 W9        30.12S WCI -14
GREAT FALLS    LGT SNOW  12   9  88 SW6       30.14R VSB 2    WCI   2
HELENA         PTSUNNY   18   9  68 NW8       30.12R WCI   8
* DEARBORN     N/A       14   8  77 N/A        N/A
* EAST GLACIER N/A        2  -2  83 N7         N/A   WCI -11
* MONARCH      N/A        5   0  80 W4         N/A
* PENDROY      N/A        8   4  84 VRB9       N/A   WCI  -5
* ROGERS PASS  N/A        7   3  83 SE2        N/A
* SWEET GRASS  N/A        5   2  87 W10        N/A   WCI -10
$$

MTZ011-013-016-021-035-040-045-047-050-051-281600-
NORTH CENTRAL MONTANA
CITY           SKY/WX    TMP DP  RH WIND       PRES   REMARKS
HAVRE          CLOUDY    10   5  80 W7        30.22R WCI  -1
LEWISTOWN      LGT SNOW  10   7  88 W8        30.09R VSB 2 1/2 WCI  -2
* N BAR RANCH  SUNNY     10   1  67 W10       30.05R WCI  -4
* CHESTER      N/A        6   1  80 N/A        N/A
* DENTON       N/A       11   7  84 S4         N/A
* GEYSER       N/A        9   4  80 W12G19     N/A   WCI  -6
* JUDITH GAP   N/A        7   6  96 N14        N/A   WCI -10
* LOMA         N/A       10   7  88 SW3        N/A
$$

MTZ017>020-022>027-061-062-281600-
NORTHEAST MONTANA
CITY           SKY/WX    TMP DP  RH WIND       PRES   REMARKS
GLASGOW        CLOUDY    10   3  73 NW14      30.17R WCI  -6
GLENDIVE       CLOUDY     9   3  76 SW6       30.16R WCI  -1
JORDAN         PTCLDY    12   9  88 W8        30.16R
SIDNEY         CLOUDY     9   5  84 W3        30.20R
WOLF POINT     LGT SNOW  12   7  80 W8        30.19R VSB 1 1/2
* BEAVER HILL  N/A        5   0  80 NW9        N/A   WCI  -9
* CIRCLE       N/A       11   7  84 SW2        N/A
* LINDSAY DVD  N/A        7   4  87 W11G16     N/A   WCI  -8
* NAVAJO       N/A        5   0  80 NW17       N/A   WCI -14
* SACO         N/A        9   2  73 NW7        N/A   WCI  -2
$$

MTZ028>042-056>058-281600-
SOUTHCENTRAL AND SOUTHEAST MONTANA
CITY           SKY/WX    TMP DP  RH WIND       PRES   REMARKS
BAKER          SUNNY      5   0  80 W16       30.12R WCI -14
BILLINGS       LGT SNOW  16   9  74 CALM      30.12R
LIVINGSTON     LGT SNOW  10   7  88 E8        30.03R VSB 2    WCI  -2
MILES CITY     CLOUDY    12   5  73 W5        30.18R WCI   4
* LAUREL APT   SUNNY     14   5  67 N/A        N/A
* ROUNDUP APT  SUNNY     12   3  67 N/A        N/A
* ALZADA       N/A        9   4  80 SW8        N/A   WCI  -3
* HYSHAM       N/A       13   6  73 W4         N/A
* LAME DEER    N/A        8   5  87 NW4        N/A
* REED POINT   N/A       15   9  77 N2         N/A
$$

REGIONAL REPORTS...DAKOTAS
CITY           SKY/WX    TMP DP  RH WIND       PRES   REMARKS
WILLISTON      CLOUDY     3  -4  72 VRB6      30.16S WCI  -8
DICKINSON      CLOUDY     9   3  76 NW23      30.06R WCI -11
BEACH          PTCLDY     7   1  76 NW10      30.12R WCI  -7
CROSBY         CLOUDY     0  -4  83 W9        30.15R WCI -15
WATFORD CITY   SUNNY      1  -4  79 W12       30.13R WCI -16
BISMARCK       CLOUDY    12   5  73 CALM      30.09R
GRAND FORKS    CLOUDY     7   0  73 S16       30.21S WCI -11
FARGO          PTCLDY     9   0  66 S16       30.27R WCI  -8
BUFFALO SD     SUNNY     10   3  73 NW22      30.01R WCI -10
RAPID CITY     PTCLDY    16   5  62 N21       30.08R WCI  -1
$$

REGIONAL REPORTS...WYOMING/IDAHO/WASHINGTON
CITY           SKY/WX    TMP DP  RH WIND       PRES   REMARKS
GILLETTE       CLOUDY    10   5  80 W9        30.06R WCI  -3
SHERIDAN       CLOUDY    16   9  74 NW6       30.09R WCI   7
CODY           CLOUDY    10  10 100 N8        30.00R WCI  -2
YELLOWSTONE LA PTSUNNY   -8 -11  86 CALM      29.80R
SALMON         PTSUNNY   27   9  46 E6        29.90R WCI  20
MULLAN PASS    SUNNY      9   1  70 E8        29.86S WCI  -3
SAND POINT     SUNNY     28   7  41 NE16G22   30.13R WCI  16
SPOKANE        SUNNY     27   7  42 NE14      30.05R WCI  16
$$

REGIONAL REPORTS...ALBERTA
CITY           SKY/WX    TMP DP  RH WIND       PRES   REMARKS
EDMONTON       CLOUDY     9   3  76 W6        30.15R WCI  -1

$$



USA.gov is the U.S. government's official web portal to all federal, state and local government web resources and services.